Location: Unspecified
(0.0000°N, 0.0000°E)
Time: 00:46:27
(UTC+00:00)

Tiros 1 despin weight - All Passes

Search period start: 20 July 2019 00:00
Search period end: 30 July 2019 00:00
Orbit: 594 x 642 km, 48.2° (Epoch: 18 July)

Date Brightness Start Highest point End Pass type
(mag) Time Alt. Az. Time Alt. Az. Time Alt. Az.
20 Jul - 07:58:46 10° SSE 08:01:36 16° SE 08:04:25 10° E daylight
20 Jul - 09:38:41 10° WSW 09:43:01 39° NW 09:47:22 10° NNE daylight
20 Jul - 20:06:23 10° N 20:10:00 24° NE 20:13:36 10° ESE visible
20 Jul - 21:47:51 10° WNW 21:51:23 23° SW 21:54:54 10° S night (unlit)
21 Jul - 08:13:51 10° SSW 08:18:11 41° SE 08:22:34 10° ENE daylight
21 Jul - 09:56:53 10° W 09:59:37 15° NW 10:02:23 10° NNW daylight
21 Jul - 20:22:09 10° NNW 20:26:35 68° NE 20:30:59 10° SE visible
22 Jul - 08:30:09 10° SW 08:34:45 71° NW 08:39:23 10° NNE daylight
22 Jul - 18:59:21 10° NNE 19:01:43 14° NE 19:04:04 10° E visible
22 Jul - 20:38:56 10° WNW 20:43:08 41° SW 20:47:19 10° SSE visible
23 Jul - 07:06:15 10° S 07:09:55 23° SE 07:13:37 10° ENE daylight
23 Jul - 08:47:28 10° WSW 08:51:19 26° NW 08:55:13 10° N daylight
23 Jul - 19:14:12 10° NNW 19:18:21 37° NE 19:22:27 10° ESE visible
23 Jul - 20:57:05 10° W 20:59:44 15° SW 21:02:22 10° SSW visible
24 Jul - 07:21:56 10° SSW 07:26:29 63° SE 07:31:04 10° NE daylight
24 Jul - 19:30:25 10° NW 19:34:54 76° SW 19:39:21 10° SE visible
25 Jul - 05:59:21 10° SSE 06:01:38 13° SE 06:03:54 10° E daylight
25 Jul - 07:38:39 10° SW 07:43:02 45° NW 07:47:28 10° NNE daylight
25 Jul - 18:06:38 10° N 18:10:05 21° NE 18:13:29 10° E daylight
25 Jul - 19:47:40 10° WNW 19:51:28 27° SW 19:55:14 10° S visible
26 Jul - 06:14:04 10° SSW 06:18:14 35° SE 06:22:26 10° ENE daylight
26 Jul - 07:56:35 10° W 07:59:39 17° NW 08:02:44 10° N daylight
26 Jul - 18:22:12 10° NNW 18:26:40 58° NE 18:31:04 10° SE visible
27 Jul - 06:30:13 10° SW 06:34:47 83° NW 06:39:24 10° NE daylight
27 Jul - 16:59:54 10° NNE 17:01:46 12° NE 17:03:38 10° ENE daylight
27 Jul - 18:38:51 10° NW 18:43:13 48° SW 18:47:32 10° SSE visible
28 Jul - 05:06:37 10° S 05:09:58 20° SE 05:13:19 10° E visible
28 Jul - 06:47:22 10° WSW 06:51:21 30° NW 06:55:22 10° N daylight
28 Jul - 17:14:20 10° NNW 17:18:25 32° NE 17:22:26 10° ESE daylight
28 Jul - 18:56:42 10° W 18:59:48 18° SW 19:02:52 10° S visible
29 Jul - 05:22:06 10° SSW 05:26:32 54° SE 05:31:00 10° NE visible
29 Jul - 07:06:29 10° WNW 07:08:00 11° NW 07:09:31 10° NNW daylight
29 Jul - 17:30:25 10° NW 17:34:59 89° SW 17:39:29 10° SE daylight
